GFSGL_850_spd_057.txt.gz
Wind_Speed
6 4 6 8 5 12 8 4 3 4 6 9 8 9 8 10 10 8 8 6 5 5 7 10 11 10 8 9 10 12 12 9 9 18 15 13 9 6 4 4 3 4 5
5 5 7 5 9 12 6 2 2 8 7 8 7 5 8 11 14 15 11 10 8 7 11 10 12 11 10 9 8 10 9 8 8 18 19 14 10 8 4 4 6 6 5
5 2 12 16 10 9 4 3 7 6 4 4 5 6 8 9 11 12 12 14 14 12 9 9 12 10 11 9 7 7 8 8 7 12 16 11 11 8 7 8 7 7 7
9 12 12 11 8 4 4 6 7 6 6 7 8 8 6 6 8 9 8 11 13 15 13 11 11 10 11 11 8 7 7 7 9 11 10 12 11 11 10 8 9 7 6
14 14 12 11 7 3 5 5 5 4 4 7 7 2 3 2 5 4 4 7 11 12 12 11 11 9 7 9 10 11 10 8 8 11 13 13 10 12 9 9 8 7 5
15 15 14 12 8 5 6 5 4 3 4 6 1 2 3 3 4 2 3 6 7 8 9 10 9 9 8 7 8 10 10 6 9 9 10 9 10 8 9 7 5 5 4
14 16 13 12 10 6 7 4 4 2 4 5 5 4 2 2 4 3 4 4 4 5 4 6 6 9 7 6 5 6 8 9 9 8 9 9 8 8 5 6 6 5 2
12 11 10 12 12 10 7 6 10 8 7 8 10 6 3 4 5 5 3 2 2 4 3 2 1 3 6 5 5 5 6 7 6 5 4 5 4 6 7 6 6 5 4
13 12 11 11 13 15 9 7 9 8 7 9 12 9 4 4 6 7 6 3 3 2 1 3 2 1 5 7 6 6 7 8 8 7 6 5 4 5 6 7 6 4 4
15 15 13 12 12 14 12 12 10 7 10 10 12 13 8 7 8 9 9 7 4 3 1 1 4 4 2 5 5 6 8 12 14 14 12 10 11 8 2 3 6 7 1
17 13 14 13 11 16 14 15 15 13 10 12 15 15 12 10 10 12 12 11 8 7 4 2 3 5 5 4 2 3 8 12 10 8 6 5 5 4 6 9 6 7 3
11 18 15 15 15 14 16 15 17 17 16 15 16 16 12 12 12 15 16 12 12 11 9 4 2 4 5 7 8 6 8 6 4 5 6 7 7 1 5 4 6 7 7
15 16 18 17 15 14 14 16 19 20 20 20 19 19 16 14 14 17 17 17 17 15 12 9 7 5 4 5 7 12 9 4 5 11 10 4 3 1 2 5 3 3 2
17 20 18 18 18 18 20 20 19 21 20 21 24 23 21 19 17 18 19 18 17 15 13 10 8 7 4 10 15 11 7 5 7 7 3 1 1 1 2 5 2 1 4
7 9 12 13 15 16 18 20 23 25 26 23 21 23 26 25 23 20 19 18 16 14 14 14 14 10 10 12 11 7 4 7 7 6 4 3 4 2 3 4 1 1 2
3 5 8 11 14 14 17 20 23 23 24 24 24 26 26 30 26 17 18 17 17 17 18 17 16 13 13 13 13 11 9 8 7 6 4 5 5 3 4 3 1 1 1
3 5 8 11 14 13 14 18 20 19 21 21 20 21 24 23 25 19 18 15 15 16 19 18 15 16 13 13 17 17 11 10 7 9 6 3 5 4 3 2 3 5 7
9 6 9 10 14 15 14 17 13 13 14 15 15 16 19 20 20 22 21 18 20 22 20 21 20 19 14 14 13 17 16 13 7 10 9 8 7 4 6 6 5 7 9
15 8 8 9 13 15 14 14 14 13 14 14 15 16 17 21 23 23 22 23 22 23 21 23 23 17 13 21 17 16 14 14 10 10 10 11 9 10 8 7 9 9 10
17 12 8 10 13 15 16 15 16 14 14 13 14 16 19 23 23 24 23 22 23 22 21 20 23 19 17 21 18 18 17 16 14 12 14 12 14 15 13 11 11 13 13
19 14 11 11 13 16 17 16 13 13 15 14 15 16 18 20 23 24 22 22 23 23 20 19 20 17 21 24 21 21 21 21 18 17 16 16 18 18 15 13 14 12 13
18 13 12 11 10 14 15 16 19 17 15 13 13 13 10 11 11 19 19 19 22 23 24 21 17 23 28 26 19 22 22 18 16 18 20 18 22 19 16 15 17 18 21
18 15 10 13 14 15 14 17 20 22 24 22 18 19 19 18 13 16 14 10 8 13 20 17 13 15 24 20 19 16 21 17 19 18 16 12 15 19 21 23 25 24 25
14 12 11 14 14 15 20 23 19 18 19 20 22 24 22 14 13 16 18 14 22 16 17 16 16 19 21 17 22 22 23 25 25 25 21 19 19 20 22 24 27 28 28
15 13 7 10 14 17 16 13 12 14 16 16 14 18 20 17 16 18 20 11 25 26 22 23 25 24 23 24 20 22 22 25 27 28 24 23 20 21 23 25 28 29 28
17 14 11 11 17 20 18 15 12 12 17 13 10 17 20 21 22 22 22 24 19 18 25 20 15 23 26 28 24 21 23 23 22 25 24 24 27 23 25 28 26 21 21

GFSGL_850_spd_060.txt.gz
Wind_Speed
6 6 3 1 7 13 10 5 3 3 6 7 6 4 7 8 6 3 2 3 4 5 6 6 6 6 5 7 10 11 12 11 12 20 16 12 8 7 4 4 5 4 5
5 7 6 5 10 8 6 3 5 7 9 9 6 6 8 10 11 11 9 7 6 7 8 7 7 7 6 6 7 10 10 10 11 20 18 16 11 7 7 4 5 5 5
7 6 11 16 8 5 4 5 8 9 7 5 5 6 7 8 9 11 11 11 9 8 7 7 8 6 6 6 6 7 8 9 10 15 20 17 14 11 7 8 8 7 6
12 12 15 13 9 6 5 7 7 7 8 9 7 6 5 5 7 9 9 10 10 9 8 7 8 8 8 4 4 5 5 7 10 13 16 15 13 11 9 7 8 8 6
17 15 13 11 8 6 7 9 9 9 8 7 6 6 3 1 3 5 5 7 7 8 8 7 7 7 7 8 7 7 6 6 10 12 12 14 13 12 11 10 9 7 5
17 16 13 11 8 4 4 7 7 8 8 6 6 3 2 4 2 1 2 3 4 6 8 9 8 7 7 7 8 8 9 4 8 11 13 12 11 12 12 12 10 4 4
16 15 14 11 8 6 6 8 7 7 6 5 5 1 1 3 4 2 2 1 1 3 4 6 6 6 6 5 6 7 8 10 9 7 9 11 11 8 9 8 5 7 5
15 15 14 14 12 10 10 9 9 9 8 7 4 4 3 4 5 4 2 2 1 1 1 1 1 4 3 3 4 5 7 8 9 8 7 8 7 7 8 9 9 8 6
15 16 14 14 13 14 13 9 9 12 8 11 8 6 7 5 7 8 6 4 2 1 2 2 3 2 4 5 4 4 6 7 8 7 6 7 6 5 5 5 8 7 6
15 13 11 11 12 14 16 12 11 10 8 10 11 9 9 9 9 11 10 7 4 2 2 4 4 4 4 5 5 5 8 12 12 12 11 9 7 6 4 4 6 7 6
12 10 10 12 10 10 14 16 14 14 12 11 13 12 12 11 10 13 14 12 9 6 4 4 6 7 6 6 7 6 11 13 13 10 9 8 7 6 4 6 3 5 4
13 14 14 13 12 14 14 16 16 17 17 16 16 15 14 14 13 13 17 17 14 11 8 5 6 8 8 7 7 8 13 12 11 9 7 6 5 2 4 4 6 7 6
16 15 17 15 17 18 17 13 14 17 20 22 21 20 18 18 15 15 16 20 18 15 11 9 8 7 8 9 11 10 11 14 10 9 12 8 4 7 6 2 4 5 6
18 19 18 19 18 19 20 17 16 17 20 22 22 24 22 21 21 20 19 21 21 19 16 13 11 9 9 10 12 14 11 7 7 10 11 7 6 5 5 1 5 5 4
18 18 17 15 14 15 15 16 17 19 21 21 24 24 23 24 23 22 22 21 22 20 18 17 16 16 13 13 16 14 12 11 10 10 8 8 8 6 7 4 6 5 3
10 10 9 9 10 11 12 15 17 18 20 23 23 27 27 25 25 26 30 20 22 22 22 20 19 18 16 16 16 15 12 11 12 11 10 9 9 8 6 6 6 5 5
2 6 8 8 9 10 9 11 14 17 20 23 27 28 28 28 27 25 27 21 23 24 24 22 20 19 20 19 18 16 15 14 10 10 10 10 10 10 8 8 8 7 7
9 8 5 7 9 9 11 11 13 15 14 14 15 17 18 20 20 19 21 23 25 27 25 23 22 21 24 24 22 21 20 19 18 12 14 13 10 9 10 11 8 8 8
11 12 11 10 9 10 10 12 13 15 18 15 15 15 15 16 17 19 21 26 26 25 23 21 21 23 27 24 20 23 22 26 25 19 14 13 15 15 13 12 10 11 10
12 14 15 13 10 10 11 12 13 13 13 12 14 13 14 15 17 22 24 25 27 26 22 22 22 26 28 22 20 25 21 20 26 22 17 15 16 18 19 17 15 14 14
12 14 14 12 11 9 11 12 12 13 12 12 13 13 13 14 15 17 20 23 26 25 23 23 24 25 29 26 22 28 26 25 26 26 23 18 19 21 21 20 16 18 19
14 15 13 10 5 10 12 11 12 13 13 13 13 11 12 13 12 12 17 20 21 21 22 22 24 26 28 28 25 32 31 27 26 25 23 23 23 23 25 23 25 24 22
16 16 12 10 11 11 13 13 15 18 19 18 18 18 16 15 14 15 13 12 12 13 19 23 25 25 24 25 25 33 35 28 27 25 24 25 25 26 26 27 25 24 23
16 15 11 10 8 10 11 14 18 18 18 18 18 20 20 20 20 22 21 16 15 13 12 15 22 25 22 24 28 33 37 28 23 25 28 25 21 18 20 21 24 23 22
15 14 14 10 10 10 12 15 17 14 12 14 16 15 17 22 23 24 26 22 23 20 20 23 26 28 24 23 28 29 33 32 29 28 29 24 23 24 24 25 23 24 25
14 15 14 13 12 11 14 15 14 12 12 12 10 9 10 13 17 19 19 16 21 25 22 26 33 33 30 27 24 22 27 31 27 28 26 31 33 31 27 25 26 29 29

GFSGL_850_spd_063.txt.gz
Wind_Speed
7 7 6 4 8 14 11 9 8 9 9 7 6 3 4 3 2 2 3 1 1 2 4 4 5 6 5 7 9 11 13 11 14 18 16 12 7 5 6 4 5 5 5
9 9 9 8 10 8 7 5 7 7 8 9 6 5 7 7 6 5 4 3 3 4 6 6 6 7 6 7 8 10 10 10 10 18 18 15 10 8 6 5 4 5 5
11 10 12 12 11 7 6 6 7 8 8 6 6 6 6 7 6 8 8 6 4 5 6 6 7 6 6 6 6 6 7 8 9 12 20 15 12 9 8 7 7 9 7
10 10 14 17 11 8 6 7 7 7 8 8 8 6 5 6 5 6 6 6 6 6 6 6 7 7 6 4 4 4 4 6 9 11 15 16 11 11 10 9 10 11 9
11 12 14 12 10 8 8 8 7 6 8 7 7 6 3 4 3 3 4 4 6 6 6 6 5 6 7 5 5 4 4 6 10 13 15 15 14 13 12 12 11 10 7
14 13 14 12 10 9 9 8 8 8 9 7 6 3 1 3 2 2 2 2 4 6 6 7 6 6 7 6 5 5 8 4 8 12 13 14 13 13 12 11 11 9 5
18 18 17 14 12 9 9 7 8 6 8 9 6 3 2 3 1 1 1 0 2 2 3 4 5 5 6 6 6 6 6 8 8 5 8 10 12 10 11 10 10 7 6
21 21 20 16 13 11 9 7 7 8 7 6 9 7 4 4 3 2 1 1 1 1 1 1 2 2 4 5 5 5 7 9 10 10 9 9 9 9 11 9 9 9 7
23 23 21 17 16 13 11 9 7 9 12 8 10 8 8 5 6 5 5 4 3 2 2 1 1 0 1 3 2 2 5 8 9 9 10 9 9 9 8 7 9 10 9
20 20 19 18 17 15 13 12 8 10 12 11 10 10 9 9 9 9 9 8 6 3 2 3 3 3 2 3 3 3 5 8 8 9 9 9 9 8 7 6 7 9 8
17 17 17 16 16 14 13 14 13 12 15 15 13 14 13 12 10 11 12 12 10 6 4 4 5 6 6 5 5 5 6 10 11 10 10 10 10 8 5 3 8 10 9
18 20 18 18 15 13 13 13 16 18 18 19 18 15 14 14 14 14 13 14 14 13 10 7 6 8 9 9 8 8 12 12 11 11 9 9 7 4 2 2 5 6 9
20 19 20 17 16 16 15 15 20 20 19 19 21 21 19 18 17 16 16 16 18 17 15 11 9 10 11 12 12 14 14 15 14 13 11 9 8 7 7 6 6 6 10
18 19 19 17 17 16 16 17 15 15 17 16 20 21 23 23 23 21 21 19 19 19 19 17 14 13 13 13 15 16 16 16 18 14 14 13 11 10 9 5 7 7 9
17 18 19 17 16 15 16 18 17 16 18 20 21 23 23 23 24 22 22 24 22 20 20 21 21 19 18 17 16 16 17 15 14 14 15 14 12 12 11 8 5 10 9
13 15 15 14 14 14 13 15 18 18 19 20 20 21 25 29 29 22 23 26 26 25 26 27 25 22 21 19 18 19 19 17 16 16 15 14 14 13 11 11 11 11 10
2 4 6 9 9 11 11 13 14 15 17 20 23 27 28 26 23 20 21 20 24 27 28 28 26 24 22 22 21 22 19 16 15 15 15 14 13 15 14 12 14 11 13
6 4 4 5 9 9 11 14 14 13 13 13 15 16 17 19 21 23 24 24 24 27 29 30 29 26 24 24 24 25 22 20 19 18 17 16 15 16 17 16 15 14 13
7 8 9 9 7 8 10 12 14 14 14 15 14 13 15 16 16 17 19 20 23 27 28 29 27 26 25 25 27 28 26 25 23 23 23 21 20 18 17 15 18 16 14
7 8 10 10 10 9 10 9 11 13 13 13 13 11 11 11 13 15 16 20 21 23 26 25 24 24 24 26 29 31 30 29 30 32 32 27 23 22 21 20 19 19 18
7 9 10 11 11 11 11 12 12 12 12 13 12 10 10 12 12 12 13 15 20 24 22 26 26 25 26 25 30 32 32 28 30 30 32 32 29 26 23 23 24 25 20
13 11 12 12 11 12 11 12 12 12 12 13 11 10 11 13 13 12 12 12 15 20 24 26 27 25 26 28 29 34 34 31 33 33 33 33 33 29 27 26 28 27 26
19 16 14 12 11 13 13 13 11 12 16 16 15 14 13 14 13 11 13 13 13 16 18 19 23 25 26 27 28 32 34 33 35 34 34 32 34 33 32 33 31 33 34
17 18 16 12 11 11 11 12 12 15 17 14 12 13 14 15 16 18 19 19 18 16 17 16 16 16 20 25 27 30 33 31 33 37 37 36 35 32 33 35 37 35 26
19 17 17 14 15 13 13 11 12 14 14 13 13 14 15 17 17 19 21 22 22 22 22 25 25 24 22 23 27 30 30 34 37 37 39 35 37 36 36 33 26 28 31
14 12 13 14 16 13 11 9 11 9 10 11 12 13 15 15 13 12 11 12 15 20 23 25 25 26 30 31 33 34 35 36 30 26 31 38 37 38 35 32 30 26 29

GFSGL_850_spd_069.txt.gz
Wind_Speed
8 9 9 8 3 8 9 7 6 6 6 5 4 1 1 2 2 2 3 3 2 1 1 1 1 3 6 8 9 12 14 12 13 19 16 13 10 7 7 6 7 7 8
8 8 8 7 7 10 10 7 5 6 6 5 3 3 3 2 2 2 1 2 1 1 1 1 1 1 3 6 8 10 11 10 12 18 18 14 11 10 9 10 11 10 10
7 9 10 11 9 6 7 7 8 6 7 5 3 3 3 4 5 5 5 3 2 1 2 2 3 3 3 6 8 10 10 9 9 12 19 18 15 14 13 12 12 12 14
7 7 7 12 10 8 7 8 7 7 5 3 4 3 2 4 4 5 5 4 3 2 2 2 3 3 4 5 7 9 10 11 12 14 18 20 17 16 13 13 14 15 15
10 9 11 12 11 9 9 9 7 6 6 5 4 3 1 1 2 4 5 4 3 3 2 2 2 2 2 4 6 8 11 13 14 17 20 20 19 18 16 16 15 15 14
12 12 14 14 13 12 10 9 7 7 7 6 3 2 1 2 0 1 3 3 3 4 4 3 3 3 3 2 3 5 7 9 13 19 19 20 19 17 18 18 18 18 13
14 14 14 15 15 13 10 9 8 7 9 9 8 4 0 2 1 1 0 1 0 1 2 2 2 2 2 2 2 2 4 7 10 12 15 17 17 17 19 20 18 16 9
17 16 16 17 16 15 13 10 9 9 8 8 7 6 6 5 4 3 2 1 2 3 3 3 2 1 1 1 1 1 3 6 8 11 12 13 13 15 16 17 18 17 10
18 19 21 19 19 16 12 8 8 8 8 8 8 8 8 7 6 5 6 5 5 4 4 5 4 3 3 3 2 2 3 5 7 9 13 15 15 15 16 17 20 17 14
21 20 20 20 19 15 11 9 10 9 8 9 10 9 9 10 8 9 9 9 9 7 6 5 6 6 5 5 5 5 5 6 6 8 10 12 13 15 16 17 16 14 12
18 20 22 21 20 17 14 14 14 14 13 13 12 12 11 10 11 12 13 11 12 12 10 8 7 7 8 8 7 7 7 6 8 10 11 12 13 14 16 17 17 14 13
16 19 22 20 19 17 16 17 18 19 20 19 17 16 16 15 15 15 15 15 14 15 14 12 10 9 11 11 11 10 9 9 10 11 12 13 13 14 15 15 16 17 18
16 17 22 20 17 16 14 14 18 22 23 22 19 18 16 17 18 19 19 18 18 19 18 16 16 15 13 15 15 14 12 13 13 13 13 13 13 13 13 12 13 14 16
20 19 17 19 18 21 21 28 25 24 23 19 14 15 18 19 16 16 16 21 22 22 21 22 21 21 19 18 19 20 19 18 17 15 14 13 15 16 15 13 12 12 10
22 18 15 16 16 21 26 28 27 26 20 18 19 21 22 20 19 19 19 21 19 19 22 25 26 24 26 27 25 23 23 23 24 21 19 18 19 19 19 18 17 15 14
24 21 16 14 16 21 21 21 17 15 17 16 15 15 19 18 21 22 20 19 19 19 26 27 27 28 29 30 30 28 26 28 27 25 23 22 21 21 20 22 22 21 17
17 15 8 9 13 18 17 15 12 12 13 15 15 16 18 21 20 22 23 23 22 22 24 26 27 33 31 34 31 32 28 29 28 26 25 24 23 23 24 22 24 22 19
8 10 18 18 11 9 6 7 7 8 7 9 8 9 8 11 11 12 13 16 19 22 25 26 24 25 28 30 31 30 31 30 28 26 27 26 24 21 22 23 22 23 23
13 13 10 6 7 6 6 5 4 4 5 8 6 6 6 10 11 11 12 12 14 15 17 20 22 24 26 26 27 28 30 33 31 27 31 25 23 24 24 23 23 25 24
10 9 7 5 1 0 2 4 4 4 6 4 4 4 8 9 8 8 9 9 10 11 12 12 14 14 15 19 20 24 27 31 32 29 32 25 22 24 25 24 24 23 24
5 4 3 1 2 2 4 5 5 4 3 3 3 6 11 14 11 9 8 12 11 10 10 11 11 14 17 18 17 18 24 27 32 33 37 39 29 29 29 27 27 26 25
1 2 4 5 6 6 5 5 5 4 2 3 5 8 9 8 9 10 9 10 9 9 8 9 11 12 13 15 16 18 20 21 23 28 29 34 34 36 33 30 31 31 31
7 7 8 9 11 9 8 6 4 4 3 5 8 8 8 7 8 9 10 11 12 12 12 13 14 13 14 16 16 16 17 18 19 21 23 28 35 37 39 40 37 34 35
12 10 10 11 12 11 9 6 5 4 2 3 5 7 9 10 10 11 11 10 10 9 9 9 10 13 15 15 16 18 18 19 17 16 22 26 29 32 34 40 44 42 38
14 11 11 11 12 12 10 9 6 4 2 5 7 9 10 11 12 13 13 12 12 11 10 10 10 11 12 15 16 16 17 19 19 20 20 24 28 29 31 36 37 34 36
10 9 7 5 7 8 8 7 6 6 8 11 11 11 11 11 12 13 13 12 11 10 11 11 12 14 16 16 16 18 19 19 16 15 20 26 30 35 37 39 36 36 39

GFSGL_850_spd_072.txt.gz
Wind_Speed
7 6 7 7 3 5 7 7 8 9 8 8 8 5 4 4 4 4 4 3 2 4 6 5 6 6 7 9 9 11 13 12 11 17 16 14 11 9 8 7 6 6 7
8 7 7 7 8 9 8 9 8 8 9 10 7 5 5 3 1 2 3 2 1 2 3 3 4 3 3 4 6 10 10 11 10 16 19 16 13 11 9 10 11 10 9
10 8 9 10 10 9 8 8 8 9 9 7 6 5 4 3 3 3 3 3 2 1 1 2 2 2 1 1 3 5 9 8 8 11 19 19 16 14 13 13 12 12 12
10 11 12 12 11 9 9 8 7 8 8 7 6 5 4 3 3 4 3 2 2 1 0 1 0 2 1 2 4 6 8 9 10 13 18 19 19 17 16 15 14 12 13
13 14 12 13 12 10 9 9 8 8 7 6 6 4 4 4 3 3 3 3 2 2 1 2 2 1 2 4 6 7 8 9 11 15 19 21 21 20 18 16 15 16 12
16 15 15 15 14 11 10 10 8 7 8 9 9 6 5 4 4 3 4 3 2 2 2 1 1 1 0 1 3 7 10 11 11 14 19 22 21 21 19 19 15 16 12
20 17 17 17 15 12 11 10 8 7 10 10 9 8 6 6 4 3 3 4 4 2 0 1 1 1 1 1 3 4 5 7 11 12 16 18 20 21 19 21 19 16 10
19 18 18 18 17 14 13 11 9 11 12 11 9 8 7 7 8 6 5 4 4 4 4 3 3 3 3 2 1 2 3 5 7 11 13 14 16 17 17 20 19 19 14
21 19 20 19 19 18 15 14 11 12 12 12 10 9 8 9 9 9 8 7 8 5 5 5 6 5 5 5 3 3 3 4 7 9 12 14 14 15 16 20 21 17 12
20 21 22 22 22 21 18 16 15 13 12 10 9 9 7 9 11 12 13 10 11 7 9 7 6 8 7 6 5 4 4 5 5 7 10 12 15 16 17 18 16 17 14
21 23 24 23 23 22 20 17 16 14 14 12 11 10 12 11 11 12 15 14 11 10 10 9 8 8 8 8 8 6 7 7 6 5 6 9 11 13 17 18 19 17 16
19 22 25 25 25 24 22 18 17 17 16 14 12 13 13 13 14 15 16 17 16 14 11 10 12 12 11 10 10 11 10 10 7 8 8 9 9 10 12 15 19 18 13
19 23 26 25 23 24 25 23 20 19 17 13 15 14 15 16 14 16 17 19 21 22 16 16 18 17 17 14 14 14 13 12 11 12 12 12 12 13 15 18 18 20 21
17 18 19 20 25 20 21 22 21 19 16 15 15 17 15 13 14 14 15 15 18 23 24 24 23 22 20 19 19 19 18 16 14 14 14 13 13 14 14 14 14 13 13
18 18 18 19 21 18 21 21 18 16 18 16 17 17 16 16 19 20 19 18 19 21 22 25 26 25 24 22 21 24 23 22 23 23 19 17 17 17 18 17 17 16 16
20 21 22 23 20 20 20 26 24 24 22 20 20 20 21 20 20 18 19 20 18 20 22 24 28 29 29 27 25 28 27 27 26 23 21 18 20 21 20 20 20 20 20
20 23 21 17 15 13 9 11 12 11 13 14 12 14 15 17 19 20 19 19 19 21 23 25 25 26 27 28 29 31 25 32 32 29 27 22 22 22 24 23 23 24 23
6 13 14 14 12 10 6 4 4 4 4 7 9 11 10 8 9 10 10 11 13 14 16 20 24 25 25 26 24 28 31 33 30 31 29 24 22 21 23 25 26 26 25
8 9 8 6 8 10 6 8 6 5 5 6 7 9 7 6 6 8 10 9 8 8 13 14 15 19 21 21 19 16 19 22 24 30 30 28 32 28 23 27 24 26 25
7 8 8 7 5 4 5 6 3 4 6 6 5 5 6 6 5 6 8 6 7 10 12 11 10 11 13 11 11 11 12 16 17 21 26 30 29 27 29 27 24 23 26
2 4 5 6 5 5 5 4 5 6 6 4 5 5 9 9 8 8 7 6 7 8 11 8 6 7 9 10 10 10 11 12 13 15 18 21 29 36 40 35 35 28 31
7 5 5 4 4 4 3 3 5 7 5 3 1 7 9 4 6 6 6 5 5 6 6 7 8 10 13 11 10 9 10 11 11 12 13 16 21 28 34 39 38 34 34
8 8 7 6 6 9 7 7 7 5 3 2 1 3 4 4 4 5 6 6 5 5 4 4 3 4 5 4 7 10 10 11 12 17 18 17 16 19 21 27 39 39 35
11 11 11 11 10 10 9 6 4 6 5 4 3 3 4 5 4 4 4 4 5 6 6 5 4 5 6 5 4 4 8 11 13 13 13 15 19 20 23 25 28 34 42
12 12 11 11 9 8 5 5 7 7 8 8 6 6 5 6 7 7 8 7 7 6 6 6 6 7 8 9 8 8 10 11 13 14 15 14 15 18 21 23 24 27 32
7 9 5 4 3 8 11 12 10 10 9 9 8 8 7 8 8 8 9 9 7 7 6 5 6 9 9 10 12 12 13 14 15 15 15 11 13 13 13 15 17 21 28

GFSGL_850_spd_075.txt.gz
Wind_Speed
8 7 9 7 6 6 5 6 7 5 7 6 5 4 3 3 3 4 5 5 5 6 6 5 6 6 7 9 10 11 12 15 11 16 15 15 11 8 9 8 7 7 7
10 11 10 10 9 9 7 6 7 6 7 5 5 6 6 6 7 3 2 5 2 2 3 4 4 4 4 4 7 9 13 14 12 12 17 17 13 11 8 8 9 9 9
14 12 11 11 12 11 8 6 5 5 7 6 5 5 4 4 3 5 7 6 3 1 3 3 2 3 4 1 3 8 9 10 10 12 16 19 16 14 11 11 10 9 9
15 14 13 14 13 11 10 9 9 8 8 6 6 5 4 3 3 2 3 0 1 1 1 2 3 2 1 2 2 4 6 7 9 10 15 19 19 16 15 14 13 12 10
17 17 16 16 14 12 12 11 10 10 9 7 7 6 5 4 2 2 0 0 2 2 3 3 3 2 1 2 2 3 2 4 6 9 15 18 20 20 19 18 15 12 12
16 14 15 17 15 15 14 14 13 11 13 10 9 7 5 3 8 4 6 1 0 1 2 2 5 4 2 1 4 6 7 8 7 12 13 18 20 20 19 19 16 15 11
20 19 15 17 16 14 14 15 13 13 13 13 11 7 6 8 10 6 6 4 2 2 2 2 3 4 5 4 1 2 5 9 11 10 10 14 19 20 19 19 17 14 12
22 18 17 19 17 15 16 16 15 15 15 13 12 10 9 10 8 7 6 5 4 3 3 3 2 2 4 2 3 3 3 2 5 9 8 9 12 14 17 18 20 17 13
20 19 18 19 18 18 18 17 17 16 15 15 11 11 11 9 11 10 8 5 9 6 5 4 4 2 8 4 4 3 6 4 5 7 8 12 11 11 13 17 19 20 16
20 21 20 20 21 20 21 20 17 16 14 13 12 11 12 10 14 13 11 8 9 7 6 8 7 8 7 6 4 4 4 7 5 6 8 10 12 14 15 15 17 20 20
18 19 21 22 25 23 22 20 18 16 14 13 12 14 14 14 15 12 12 12 9 9 6 10 9 9 8 7 8 7 9 9 10 7 6 8 12 15 18 18 20 19 19
16 19 19 22 22 23 24 22 20 18 17 15 15 15 13 15 17 14 13 14 14 12 11 12 11 14 13 11 11 13 12 12 9 9 10 11 11 13 15 18 21 23 21
11 14 17 19 21 21 24 23 20 20 20 18 17 17 16 17 18 16 13 15 16 18 14 16 18 17 17 17 15 15 14 14 12 13 14 13 13 12 12 14 16 19 21
13 13 16 18 21 23 24 25 24 24 21 20 19 20 20 18 17 14 13 13 14 16 19 23 23 24 24 22 20 19 18 18 17 16 17 14 13 13 14 15 16 17 17
13 15 17 20 21 24 25 25 24 24 19 15 17 20 20 17 15 15 14 14 15 17 14 18 23 24 25 23 24 22 23 20 22 23 20 16 16 16 17 16 17 17 18
14 18 20 22 24 23 27 28 25 23 20 20 20 23 23 19 20 18 13 12 14 17 19 21 22 25 28 26 25 23 23 23 21 22 20 21 19 20 21 21 20 21 20
15 20 23 26 24 26 27 20 17 18 19 18 16 13 10 11 10 10 9 10 10 12 15 19 23 23 22 24 22 26 23 32 29 21 26 28 27 26 25 23 25 27 27
6 9 16 20 19 14 16 12 9 5 3 3 4 5 8 7 6 5 5 5 5 7 10 10 14 14 15 18 19 18 20 25 26 29 31 33 34 32 31 30 28 25 26
10 5 3 4 11 12 8 6 4 4 2 3 4 4 4 5 3 4 4 4 2 4 5 7 11 9 10 10 13 14 15 15 15 19 23 26 26 30 33 35 31 32 31
9 16 15 13 15 12 11 7 4 4 4 0 6 5 2 3 5 6 5 2 4 5 4 6 7 8 7 7 8 9 9 9 10 11 13 16 18 24 28 31 35 35 36
8 4 9 5 2 9 6 6 6 4 6 6 11 7 6 6 5 5 4 1 2 4 6 4 6 6 8 10 9 9 9 9 9 9 10 10 12 16 18 22 29 35 38
8 8 6 7 6 5 5 6 7 7 7 3 3 3 3 4 4 2 0 3 3 6 4 3 4 5 3 6 9 12 11 10 11 11 12 13 13 14 17 22 27 30 38
13 15 10 8 6 7 7 6 4 8 6 5 3 6 4 4 4 5 5 5 5 6 5 4 2 4 3 6 6 5 8 6 4 7 10 15 18 20 21 22 21 22 24
22 18 15 14 12 10 8 2 2 3 6 8 6 7 7 7 4 6 7 3 2 4 5 4 4 4 3 4 6 10 10 10 12 14 15 15 16 17 16 19 22 22 23
12 14 15 13 11 7 6 4 7 11 8 9 7 9 8 6 7 8 10 7 7 7 6 6 6 8 8 8 8 9 10 11 11 11 12 9 11 12 12 16 22 27 28
6 6 7 4 2 6 12 13 10 10 10 9 10 9 11 9 9 9 9 9 9 8 5 3 3 2 2 3 12 12 12 13 13 13 15 10 13 13 14 14 16 16 16